This is the latest recevied weather packets stored in our database for station/object KB9ZI. If no packets are shown the sender has not sent any weather packets the latest 1 day(s).
| Time | Temp. | Humidity | Pressure | Rain* | Wind** | Luminosity | Snow |
|---|---|---|---|---|---|---|---|
| 1778007456 | 9.44° C | 50% | 1010.8 hPa | 0 mm | 0 m/s | - | - |
| 1778007330 | 9.44° C | 47% | 1010.8 hPa | 0 mm | 0 m/s | - | - |
| 1778007274 | 9.44° C | 48% | 1010.8 hPa | 0 mm | 0 m/s | - | - |
| 1778007099 | 9.44° C | 49% | 1010.8 hPa | 0 mm | 0 m/s | - | - |
| 1778007007 | 9.44° C | 48% | 1010.8 hPa | 0 mm | 0 m/s | - | - |
| 1778006827 | 10° C | 46% | 1010.9 hPa | 0 mm | 0 m/s | - | - |
| 1778006705 | 10° C | 47% | 1010.8 hPa | 0 mm | 0 m/s | - | - |
| 1778006573 | 10° C | 50% | 1010.8 hPa | 0 mm | 0 m/s | - | - |
| 1778006458 | 10° C | 49% | 1010.9 hPa | 0 mm | 0 m/s | - | - |
| 1778006427 | 9.44° C | 49% | 1010.7 hPa | 0 mm | 0 m/s | - | - |
| 1778006402 | 9.44° C | 47% | 1010.8 hPa | 0 mm | 0 m/s | - | - |
| 1778006081 | 9.44° C | 46% | 1010.7 hPa | 0 mm | 0 m/s | - | - |
| 1778005960 | 9.44° C | 46% | 1010.8 hPa | 0 mm | 0 m/s | - | - |
| 1778005838 | 10° C | 45% | 1010.6 hPa | 0 mm | 0 m/s | - | - |
| 1778005804 | 10° C | 44% | 1010.7 hPa | 0 mm | 0 m/s | - | - |
| 1778005594 | 10.56° C | 46% | 1010.6 hPa | 0 mm | 0 m/s | - | - |
| 1778005470 | 10.56° C | 48% | 1010.6 hPa | 0 mm | 0 m/s | - | - |
| 1778005356 | 10.56° C | 44% | 1010.8 hPa | 0 mm | 0 m/s | - | - |
| 1778005288 | 10.56° C | 47% | 1010.6 hPa | 0 mm | 0 m/s | - | - |
| 1778005111 | 10.56° C | 44% | 1010.7 hPa | 0 mm | 0 m/s | - | - |
| 1778004992 | 11.11° C | 44% | 1010.7 hPa | 0 mm | 0 m/s | - | - |
| 1778004868 | 11.67° C | 48% | 1010.6 hPa | 0 mm | 0 m/s | - | - |
| 1778004756 | 11.11° C | 52% | 1010.7 hPa | 0 mm | 0 m/s | - | - |
| 1778004626 | 10.56° C | 48% | 1010.7 hPa | 0 mm | 0 m/s | - | - |
| 1778004507 | 10.56° C | 46% | 1010.7 hPa | 0 mm | 0 m/s | - | - |
* Rain latest hour (hover to see other rain measurements)
** Current wind speed in m/s (hover to see current wind gust speed)